Location: ??
(34.7252°N, 135.5457°E)
Time: 09:19:48
(UTC+00:00)

Intercosmos 25 - Pass Details

Date: 24 September 2020
Orbit: 440 x 2876 km, 82.6° (Epoch: 23 October)

Event Time Altitude Azimuth Distance (km) Brightness Sun altitude
Rises 19:02:28 0° 175° (S) 3,333 7.2 -22.3°
Reaches altitude 10° 19:05:17 10° 169° (S) 2,120 6.2 -21.7°
Maximum altitude 19:09:29 47° 96° (E) 713 4.2 -20.9°
Drops below altitude 10° 19:12:42 10° 21° (NNE) 1,616 6.1 -20.2°
Sets 19:14:35 0° 15° (NNE) 2,443 7.0 -19.9°
